"Pseudo-MPEC" for ZG86A39

Created 2018 Apr 20 14:18:12 UT using Find_Orb

Click here for an explanation of pseudo-MPECs

 
 Astrometry: 
     ZG86A39  C2018 04 15.38238 14 29 27.81 -01 04 27.1          20.1 GUNEOCPG96
     ZG86A39  C2018 04 15.38755 14 29 27.65 -01 04 30.2          20.1 GUNEOCPG96
     ZG86A39  C2018 04 15.39272 14 29 27.51 -01 04 33.1          19.8 GUNEOCPG96
     ZG86A39  C2018 04 15.39789 14 29 27.37 -01 04 36.5          19.8 GUNEOCPG96
     ZG86A39  C2018 04 15.45537 14 29 25.74 -01 05 10.6          19.5 GUNEOCPI52
     ZG86A39  C2018 04 15.46010 14 29 25.59 -01 05 13.4          19.5 GUNEOCPI52
     ZG86A39  C2018 04 15.46489 14 29 25.48 -01 05 16.0          19.6 GUNEOCPI52
     ZG86A39  C2018 04 15.46960 14 29 25.34 -01 05 18.4          19.4 GUNEOCPI52
     ZG86A39  C2018 04 15:RAstrometry`SQFVCrqGh$hHi8_:cs;p4T^,/lFa,TmR06$[7m9D29
     ZG86A39  C2018 04 15YcH!!uW4EEi)QRvRm(,:5p*9RA`EJa%cD8OX]t!fL-X!ydo4ZMfuD29
     ZG86A39  C2018 04 1542v^MR=6q;(NeuO,!7Yl!wa5Wacx]wd357e,(6H0kvPf%6g8.:wJD29
     ZG86A39  C2018 04 16.41703 14 29 02.14 -01 14 52.0          18.8 GUNEOCPI52
     ZG86A39  C2018 04 16.42401 14 29 01.92 -01 14 56.2          20.0 GUNEOCPI52
     ZG86A39  C2018 04 16.42904 14 29 01.76 -01 14 58.9          19.1 GUNEOCPI52
     ZG86A39  C2018 04 16.43321 14 29 01.65 -01 15 02.0          19.9 GUNEOCPI52
     ZG86A39 KC2018 04 17OT1l,HCp52bU?jkgT\c^BtC_3CG'@qVO]#5_F,uYHPx8u?F2\+4$K38
     ZG86A39 KC2018 04 17YX=lUeMP6*%Ma:3-.@H^:Y7;ksFZx%loLGZywK]VxDKe,KsLN1EBK38
     ZG86A39 KC2018 04 17E\]jV)J.c#i8BocL;$w'0T7*f\M10!Nn\1v:nRBdojd'Akkw((@UK38
     ZG86A39  C2018 04 17.47656 14 28 33.86 -01 25 59.6          19.2 GUNEOCPI52
     ZG86A39  C2018 04 17.48196 14 28 33.73 -01 26 02.9          19.5 GUNEOCPI52
     ZG86A39  C2018 04 17.48607 14 28 33.60 -01 26 05.1          19.1 GUNEOCPI52
     ZG86A39  C2018 04 17Q7?,e3fHD=bx1nAucw?MX`sJ^M,fm%ux:^'(K)hE%S9OVwH^V/1Z246
     ZG86A39  C2018 04 17m^@3+Eb)aAC^lLe4LjhejqvA?4w(E1O]RBw$K9[l\?9b^'4NITrt246
     ZG86A39  C2018 04 18.01324 14 28 19.63 -01 31 51.8          19.7 VSNEOCP033
     ZG86A39  C2018 04 18.01479 14 28 19.58 -01 31 52.8          19.4 VSNEOCP033
     ZG86A39  C2018 04 18.01635 14 28 19.52 -01 31 53.8          19.8 VSNEOCP033
     ZG86A39 KC2018 04 18P:nkv=#/Bv,GGy(m5!`x`h2hk@afJUZh0+W6_fY[M\Lb*b=j:#2F850
     ZG86A39 KC2018 04 18$G-Dq$:4Et%_`^@gW:ZaVw+pUvUvCb@oXx/Nf.km=)h*!ED[`3kJ850
     ZG86A39 KC2018 04 18BcGw9j93_K1HyRWCJredacted;s'l#(7QVQw'M`NJTr=g2hSZg+k850
     ZG86A39  C2018 04 18.47152 14 28 05.96 -01 36 51.9          19.2 GUNEOCPI52
     ZG86A39  C2018 04 18.47493 14 28 05.87 -01 36 54.7          19.3 GUNEOCPI52
     ZG86A39  C2018 04 18.47994 14 28 05.73 -01 36 57.9          19.4 GUNEOCPI52
     ZG86A39  C2018 04 18.48396 14 28 05.60 -01 37 00.4          19.4 GUNEOCPI52
     ZG86A39  C2018 04 18C(/.@lv0+R;(YhCa8wZUlCqdr.+h$nPx`*tJ6Mer`S;HEl(T1NQ\P93
     ZG86A39  C2018 04 18._$DH(ly'-]UWs(Cliva7B.sP?G(!/D:jH88*_kelOA##FHlw0]sP93
     ZG86A39  C2018 04 18VI7WQlAua1wSI\8o!^xBb.Il_3*X+:(vL3Bmc)$:7'v)PxhNtPOtP93
     ZG86A39  C2018 04 188RAR?%0$?lTEvlCZJ]qR4T\fB1`L:5?l0qe5[i.NCT.sFQSqh$#YP93
     ZG86A39  C2018 04 18_hUJO(d!VNru=SdK[aYC[NhQ=m.?mb[rkc\/dm76hTD-YYn9#)s+246
     ZG86A39  C2018 04 18LJH?XBy%*ZwuxZ^'uSo)QVb0%!3.t?ZDASV=R6Gggve!Z'(/4x8e246
     ZG86A39  C2018 04 18T!vYcBQ\VOXd,upvC]cse.*m=rE0^T1Z3gw/Z@H8*T3*08m^:Xlx246
     ZG86A39  C2018 04 18Lcqqs/K*C9L@DTBlFL4'*D?x\30N2\8].1F3piv/)@KgdRgx3LwR246
     ZG86A39 KC2018 04 18$Y?4.+qBYehl[WMWAVR_[?#g,2S,62Kt1vNTU:B!uTN-O^_4t$k;L01
     ZG86A39 IC2018 04 18dGwg3(8an46HCPDE%RM2'fKo:OaUn.KE/N2v0K7$9M]W%\]WcI_OL01
     ZG86A39 IC2018 04 18u.CJoyrXJ=ARP=cUTAn\HQ9'3v^wFwu`seeJEU#rgM5.Z?KwtZriL01
     ZG86A39 KC2018 04 19ptt/!b`:_`7?[QCZ-FRtNB].a._\BW%8RySabm_t]6=qwdJLlF/TK38
     ZG86A39 KC2018 04 19-q9CnJH`Hb0c$Wdp^=aU58s9de_M?Fy2jG78-9:p#$N5BU+ZLFiaK38
     ZG86A39 KC2018 04 19_cT#(m+:*4*QKv8?k.vo]1klq%=nZWh`\1bPoP4V08OU!KJ8]o^TK38
     ZG86A39  C2018 04 19.43367 14 27 37.65 -01 47 48.6          19.6 GUNEOCPI52
     ZG86A39  C2018 04 19.43904 14 27 37.44 -01 47 52.3          19.3 GUNEOCPI52
     ZG86A39  C2018 04 19.44429 14 27 37.30 -01 47 55.9          19.7 GUNEOCPI52
     ZG86A39  C2018 04 19.44846 14 27 37.15 -01 47 58.7          19.5 GUNEOCPI52
     ZG86A39  C2018 04 19tqi6NF%.`;skhS%BciZ8E5cIM?e.mhZ\X.]7pwRiC1-SpFgbEW%HP93
     ZG86A39  C2018 04 19^AJ45lHKJ0.b`:o`8Gn3=nU%92*Jd]tSrf!x72`S8Fmb,_B-.0J?P93
     ZG86A39  C2018 04 19)p+h2U,oP_B;t-'Z`s'.5gGXuUByXa]NlK:G1cwK+nf%!G:@A$0bP93
     ZG86A39  C2018 04 19Kh]'07_qtgcy[d0Db[*0!ce#'wx+-aWOx8_5Q0/MbS7swS.[cdEOP93
     ZG86A39 KC2018 04 19@V=!JMy:e8P94OggOt7^Uy3v!C9V9rfq3Qd=mf0[fH];gW-Aob@\K61
     ZG86A39 KC2018 04 19^AZRxsJJ:A]E+T9LeNhQw%G6T_,p%B/;RPe#j`:5Fo(r4W:?.?fLK61
     ZG86A39 KC2018 04 19/te;kj8TD:owjZT4tHJ@=,l+c,Kq%kw5fb*1,BeQ]4('n6BNEOCPK61
     ZG86A39 KC2018 04 19.95204 14 27 22.62 -01 53 55.2          19.2 VqNEOCPI93
     ZG86A39 KC2018 04 19.96905 14 27 21.97 -01 54 07.2          19.8 VqNEOCPI93
     ZG86A39 KC2018 04 19.98571 14 27 21.37 -01 54 19.0          18.8 VqNEOCPI93
     ZG86A39  C2018 04 20.04148 14 27 19.31 -01 54 59.3          19.6 VSNEOCP033
     ZG86A39  C2018 04 20.04326 14 27 19.23 -01 55 00.7          19.5 VSNEOCP033
     ZG86A39  C2018 04 20.04506 14 27 19.17 -01 55 02.0          19.4 VSNEOCP033
     ZG86A39  C2018 04 20.19386 14 27 15.41 -01 56 44.8          20.2 GUNEOCPI52
     ZG86A39  C2018 04 20.20200 14 27 15.11 -01 56 50.8          19.2 GUNEOCPI52
     ZG86A39  C2018 04 20.20618 14 27 14.90 -01 56 53.5          20.5 GUNEOCPI52

Station data:
(033) Karl Schwarzschild Observatory, Tautenburg  (N50.980140 E11.711240)
   Germany. 1.3-m Schmidt.
(246) Klet Observatory-KLENOT  (N48.863293 E14.288100)  Czech Republic.
   1.06-m KLENOT telescope.
(850) Cordell-Lorenz Observatory, Sewanee  (N35.204094 W85.919800)
   US/Tennessee. 0.3-m Schmidt-Cassegrain.
(D29) Purple Mountain Observatory, XuYi Station  (N32.734366 E118.463900)
   China.  Observers H. B. Zhao, B. Li, G. Zhaori, R. Q. Hong, L. F. Hu.
   Measurers H. B. Zhao, B. Li. H. Lu, G. Zhaori. 1.04-m f/1.8 Schmidt + CCD.
(G96) Mt. Lemmon Survey  (N32.442754 W110.788720)  US/Arizona.  Observers E.
   J. Christensen, A. R. Gibbs, A. D. Grauer, R. E. Hill, J. A. Johnson, R.
   A. Kowalski, S. M. Larson, F. C. Shelly. 1.5-m reflector + CCD.
(I52) Steward Observatory, Mt. Lemmon Station  (N32.442547 W110.788920)
   US/Arizona.
(I93) St Pardon de Conques  (N44.558710 W0.203000)  France.  Observer F.
   Losse. 0.40-m f/3.7 reflector + CCD.
(K38) M57 Observatory, Saltrio  (N45.522304 E8.551100)  Italy.
(K61) Rokycany Observatory  (N49.751403 E13.602600)  Czech Republic.
(L01) Višnjan Observatory, Tičan  (N45.290900 E13.749300)  Croatia.
(P93) Space Tracking and Communications Center, JAXA  (N34.672353
   E133.544330)  Japan.

Orbital elements:  ZG86A39
   Perihelion 2018 Jun 20.278949 +/- 0.606 TT =  6:41:41 (JD 2458289.778949)
Epoch 2018 Apr 20.0 TT = JDT 2458228.5   Earth MOID: 0.4113   Ju: 0.0125
M 350.95185 +/- 0.24                Ma: 0.0875                AutoNEOCP
n   0.14765497 +/- 0.00555          Peri.  200.21656 +/- 0.53
a   3.54517220 +/- 0.0876           Node    53.15623 +/- 0.09
e   0.5999827 +/- 0.0098            Incl.   11.75467 +/- 0.12
P   6.68                   H 19.6   G  0.15   U  9.3  
q 1.41812990 +/- 0.00146    Q 5.67221451 +/- 0.167
From 67 observations 2018 Apr. 15-20; mean residual 0".36
Residuals in arcseconds: 
180415 G96  .09+  .16+    180418 033  .20+  .21-    180419 K38  .05-  .05-    
180415 G96  .08-  .12+    180418 033  .20+  .19-    180419 I52  .35-  .14-    
180415 G96  .05+  .27+    180418 033  .05+  .17-    180419 I52  .71-  .12-    
180415 G96  .17+  .08-    180418 850  .75-  .52+    180419 I52  .09-  .08-    
180415 I52  .15+  .21-    180418 850  .70-  .35+    180419 I52  .18-  .02+    
180415 I52  .13-  .21-    180418 850  .04-  .10-    180419 P93  .04-  .21-    
180415 I52  .21+  .03+    180418 I52  .46-  .08+    180419 P93  .15+  .19-    
180415 I52  .07+  .41+    180418 I52  .16-  .45-    180419 P93  1.1+  .53+    
180415 D29  .14-  .19-    180418 I52  .17+  .30-    180419 P93  1.2-  .66-    
180415 D29  .49-  .08+    180418 I52  .16+  .12-    180419 K61  .01+  .11+    
180415 D29  .06+  .34+    180418 P93  .42+  .55+    180419 K61  .34-  .14-    
180416 I52  .10+  .31-    180418 P93  .36+  .51+    180419 K61  .38+  .13+    
180416 I52  .04-  .22-    180418 P93  .46+  .48+    180419 I93  .33+  .24-    
180416 I52  .17-  .18+    180418 P93  .40+  .25+    180419 I93  .43-  .16-    
180416 I52  .05+  .35-    180418 246  .27+  .11+    180419 I93  .57-  .12-    
180417 K38  .24-  .03-    180418 246  .41+  .18-    180420 033  .21+  .33+    
180417 K38  .84+  .23-    180418 246  .06+  .40+    180420 033  .05-  .19+    
180417 K38  .26+  .53-    180418 246  .07-  .03+    180420 033  .01-  .17+    
180417 I52  .67-  .67-    180418 L01  .21+  .26+    180420 I52  .40+  .08-    
180417 I52  .13-  .50-    180418 L01  .62+  .24+    180420 I52  .17+  .24-    
180417 I52  .20-  .06-    180418 L01  .97+  .05+    180420 I52  .77-  .06+    
180417 246  .12-  .75+    180419 K38  .04-  .48-    
180417 246  .73-  .10-    180419 K38  .19-  .30-    

Ephemerides (geocentric):
Date (UTC) HH   RA              Dec         delta   r     elong  mag " sig PA
---- -- -- --  ------------   ------------  ------ ------ -----  --- ---- ---
2018 04 20 14  14 27 02.392   -02 01 17.12  .57245 1.5680 167.2 19.9  .18 149
2018 04 20 15  14 27 01.061   -02 01 47.41  .57221 1.5678 167.2 19.9  .18 149
2018 04 20 16  14 26 59.726   -02 02 17.76  .57197 1.5676 167.2 19.9  .19 149
2018 04 20 17  14 26 58.390   -02 02 48.15  .57173 1.5675 167.3 19.9  .19 149
2018 04 20 18  14 26 57.051   -02 03 18.59  .57149 1.5673 167.3 19.9  .20 148
2018 04 20 19  14 26 55.709   -02 03 49.08  .57125 1.5671 167.3 19.9  .20 148
2018 04 20 20  14 26 54.365   -02 04 19.61  .57101 1.5669 167.3 19.9  .20 148
